Regional Weather Roundup
Issued by NWS Kansas City/Pleasant Hill, MO

Home | Current Version | Previous Version | Graphics & Text | Print | Product List | Glossary Off
Versions: 1 2 3 4 5 6 7 8 9 10 11 12 13 14 15 16 17 18 19 20 21 22 23 24 25 26 27 28

000
ASUS43 KEAX 221410
RWREAX

WEATHER ROUNDUP FOR EASTERN KANSAS AND NORTHWEST MISSOURI
NATIONAL WEATHER SERVICE KANSAS CITY/PLEASANT HILL MO
900 AM CDT SAT JUL 22 2017

KSZ040-057-103>105-MOZ028-029-037-043-221500-
...KANSAS CITY METROPOLITAN AREA...

CITY           SKY/WX    TMP DP  RH WIND       PRES   REMARKS
K.C. INTL      MOSUNNY   84  73  69 SW14      29.84R HX  90
K.C. DOWNTOWN  SUNNY     87  73  62 SW12      29.83R HX  94
LEES SUMMIT    SUNNY     86  73  65 SW18      29.85F HX  93
OLATHE - IXD   SUNNY     84  71  65 SW16      29.86S
OLATHE - OJC   SUNNY     84  72  67 SW14G23   29.86S
LAWRENCE       SUNNY     87  73  62 SW13      29.84S HX  94

$$

MOZ001>008-011>017-020>025-030>033-038>040-044>046-053-054-221500-
...NORTHERN AND CENTRAL MISSOURI...

CITY           SKY/WX    TMP DP  RH WIND       PRES   REMARKS
ST. JOSEPH     SUNNY     84  76  76 SW10      29.82F HX  93
MOSBY          SUNNY     86  70  58 W6        29.84R HX  90
WARRENSBURG    SUNNY     84  70  61 SW13G22   29.86S
WHITEMAN AFB   MOSUNNY   86  73  66 SW18      29.85F HX  93
CLINTON        SUNNY     84  73  70 SW13      29.89S HX  91
SEDALIA        SUNNY     86  74  67 SW17G26   29.89R HX  94
WARSAW         NOT AVBL
CHILLICOTHE      N/A     86  76  71 SW5       29.82F HX  96
KIRKSVILLE     SUNNY     85  74  69 S8        29.86F HX  92

$$

MOZ041-047>049-056>058-063>065-088>090-097-221500-
...EASTERN AND SOUTHERN MISSOURI...

CITY           SKY/WX    TMP DP  RH WIND       PRES   REMARKS
ST. LOUIS INTL CLOUDY    87  72  60 NW10      29.94R HX  93
SPIRIT OF STL  PTSUNNY   86  74  67 NW9       29.91R HX  94
COLUMBIA       SUNNY     87  72  60 SW14G22   29.88S HX  93
JEFFERSON CITY SUNNY     87  74  64 SW9       29.87F HX  95
ROLLA          SUNNY     82  73  74 SW16      29.92S
OSAGE BEACH    MOSUNNY   85  72  65 SW13      29.92  HX  91
SPRINGFIELD    SUNNY     83  73  72 SW9       29.96R
BRANSON        SUNNY     84  72  65 SW7       30.00R
JOPLIN         SUNNY     87  73  62 S15       29.94R HX  94
WEST PLAINS    SUNNY     84  72  67 W9        30.00R

$$

IAZ060-094-KSZ022-034>040-054-083-096-NEZ052-066-093-221500-
...KANSAS...SOUTHEAST NEBRASKA AND IOWA...

CITY           SKY/WX    TMP DP  RH WIND       PRES   REMARKS
TOPEKA         SUNNY     86  73  65 W6        29.84R HX  93
MANHATTAN      SUNNY     87  69  54 SW12      29.84R HX  91
EMPORIA        MOSUNNY   86  69  56 SW15      29.87S HX  90
CHANUTE        MOSUNNY   85  71  63 MISG      29.91R HX  90
WICHITA        MOSUNNY   85  70  60 S13       29.88S
OMAHA          PTSUNNY   83  75  77 CALM      29.81R HX  90
LINCOLN        CLOUDY    81  77  88 CALM      29.84R FOG
LAMONI         SUNNY     84  74  71 SW10      29.81S HX  91
DES MOINES     PTSUNNY   81  75  82 S6        29.77S

$$





USA.gov is the U.S. government's official web portal to all federal, state and local government web resources and services.